Voltar ao catálogo

FENGYUN 1C DEB

LostPO
NORAD 38718·DEBRIS·🇨🇳 China

Lançado May 10, 1999 de Taiyuan Satellite Launch Center

Loading…

Próximas Passagens (próximas 24 horas)

TLE

ObsoletoSource: Space-Track

Época: Jan 23, 2022, 23:16 UTC

1 38718U 99025ETK 22023.96975892  .00000476  00000-0  42974-3 0  9992
2 38718  98.6544 289.5384 0207972 186.8137 173.0179 13.78841895693443

Acompanhe FENGYUN 1C DEB em tempo real com AllMySat

Download on the App Store